Weather History for KTXK - November, 2011

Change the Weather History Date:

Saturday, November 12, 2011

  Actual Average Record
Temperature  
Mean Temperature 60 °F 56 °F  
Max Temperature 71 °F 66 °F 86 °F (1955)
Min Temperature 48 °F 45 °F 24 °F (1911)
Degree Days  
Heating Degree Days 5 10  
Month to date heating degree days 81 101  
Since 1 July heating degree days 167 219  
Cooling Degree Days 0 1  
Month to date cooling degree days 7 12  
Year to date cooling degree days 2929 2200  
Growing Degree Days 9 (Base 50)    
Moisture  
Dew Point 48 °F    
Average Humidity 65    
Maximum Humidity 80    
Minimum Humidity 50    
Precipitation  
Precipitation 0.00 in 0.16 in 2.63 in (1988)
Month to date precipitation 0.30 1.80  
Year to date precipitation 22.42 41.58  
Snow  
Snow 0.00 in - - ()
Month to date snowfall 0.0  
Since 1 July snowfall 0.0  
Since 1 September snowfall 0.0  
Snow Depth 0.00 in    
Sea Level Pressure  
Sea Level Pressure 29.98 in    
Wind  
Wind Speed 13 mph (SSW)    
Max Wind Speed 25 mph    
Max Gust Speed 36 mph    
Visibility 10 miles    
Events      
T = Trace of Precipitation, MM = Missing Value Source: NWS Daily Summary

Daily Weather History Graph

Daily Weather History Graph

Search for Another Location

Airport or City:

Trip Planner

Search our weather history database for the weather conditions in past years. The results will help you decide how hot, cold, wet, or windy it might be!

Date:

Astronomy

Nov. 12, 2011 Rise Set
Actual Time 6:44 AM CST 5:15 PM CST
Civil Twilight 6:18 AM CST 5:41 PM CST
Nautical Twilight 5:48 AM CST 6:11 PM CST
Astronomical Twilight 5:18 AM CST 6:40 PM CST
Moon 6:37 PM CST (11/12) 8:22 AM CST (11/12)
Length of Visible Light 11h 23m
Length of Day
10h 31m
Full, 97% of the Moon is Illuminated
Nov 12
Full
Nov 18
Last Quarter
Nov 25
New
Dec 2
First Quarter
Dec 10
Full

Hourly Weather History & Observations

Time (CST) Temp. Dew Point Humidity Pressure Visibility Wind Dir Wind Speed Gust Speed Precip Events Conditions
12:53 AM 51.1 °F 36.0 °F 56% 30.06 in 10.0 mi South 9.2 mph - N/A   Clear
1:53 AM 50.0 °F 37.0 °F 61% 30.06 in 10.0 mi South 8.1 mph - N/A   Clear
2:53 AM 48.9 °F 39.0 °F 69% 30.05 in 10.0 mi SSW 9.2 mph - N/A   Clear
3:53 AM 48.9 °F 39.9 °F 71% 30.04 in 10.0 mi SSW 9.2 mph - N/A   Clear
4:53 AM 48.0 °F 39.9 °F 74% 30.04 in 10.0 mi South 5.8 mph - N/A   Clear
5:53 AM 48.0 °F 41.0 °F 77% 30.04 in 10.0 mi South 6.9 mph - N/A   Clear
6:53 AM 48.2 °F 42.8 °F 82% 30.05 in 10.0 mi South 8.1 mph - N/A   Clear
7:53 AM 51.1 °F 44.1 °F 77% 30.06 in 10.0 mi South 8.1 mph - N/A   Clear
8:53 AM 55.4 °F 46.4 °F 72% 30.06 in 10.0 mi South 13.8 mph 23.0 mph N/A   Clear
9:53 AM 63.0 °F 48.9 °F 60% 30.04 in 10.0 mi SSW 16.1 mph 25.3 mph N/A   Clear
10:53 AM 64.9 °F 50.0 °F 58% 30.04 in 10.0 mi SSW 19.6 mph 25.3 mph N/A   Clear
11:53 AM 68.0 °F 51.1 °F 55% 30.00 in 10.0 mi SSW 13.8 mph 29.9 mph N/A   Scattered Clouds
12:53 PM 70.0 °F 51.1 °F 51% 29.96 in 10.0 mi SSW 16.1 mph 24.2 mph N/A   Scattered Clouds
1:53 PM 69.1 °F 51.1 °F 53% 29.94 in 10.0 mi SSW 16.1 mph 32.2 mph N/A   Mostly Cloudy
2:53 PM 70.0 °F 52.0 °F 53% 29.92 in 10.0 mi SSW 18.4 mph 27.6 mph N/A   Partly Cloudy
3:53 PM 70.0 °F 52.0 °F 53% 29.90 in 10.0 mi South 19.6 mph 32.2 mph N/A   Mostly Cloudy
4:53 PM 69.1 °F 53.1 °F 57% 29.89 in 10.0 mi South 11.5 mph 19.6 mph N/A   Scattered Clouds
5:53 PM 69.1 °F 53.1 °F 57% 29.90 in 10.0 mi South 12.7 mph - N/A   Clear
6:53 PM 69.1 °F 52.0 °F 54% 29.89 in 10.0 mi South 16.1 mph 25.3 mph N/A   Clear
7:53 PM 68.0 °F 51.8 °F 56% 29.92 in 10.0 mi South 12.7 mph 19.6 mph N/A   Mostly Cloudy
8:53 PM 66.9 °F 53.1 °F 61% 29.91 in 10.0 mi South 12.7 mph 20.7 mph N/A   Mostly Cloudy
9:53 PM 66.9 °F 53.1 °F 61% 29.91 in 10.0 mi South 15.0 mph 25.3 mph N/A   Partly Cloudy
10:53 PM 66.0 °F 54.0 °F 65% 29.89 in 10.0 mi South 12.7 mph - N/A   Clear
11:53 PM 64.9 °F 54.0 °F 68% 29.88 in 10.0 mi South 11.5 mph 20.7 mph N/A   Clear